TimeEDT,TemperatureF,Dew PointF,Humidity,Sea Level PressureIn,VisibilityMPH,Wind Direction,Wind SpeedMPH,Gust SpeedMPH,PrecipitationIn,Events,Conditions,WindDirDegrees,DateUTC
12:15 AM,33.8,28.4,81,30.17,10.0,NW,9.2,-,N/A,,Overcast,310,2013-03-27 04:15:00
12:35 AM,33.8,28.4,81,30.17,10.0,NW,9.2,-,N/A,,Overcast,320,2013-03-27 04:35:00
12:55 AM,33.8,28.4,81,30.17,10.0,NW,6.9,-,N/A,,Overcast,310,2013-03-27 04:55:00
1:15 AM,33.8,28.4,81,30.17,10.0,NW,5.8,-,N/A,,Overcast,310,2013-03-27 05:15:00
1:35 AM,33.8,28.4,81,30.17,10.0,WNW,5.8,-,N/A,,Overcast,300,2013-03-27 05:35:00
1:55 AM,33.8,28.4,81,30.17,10.0,WNW,6.9,-,N/A,,Overcast,300,2013-03-27 05:55:00
2:15 AM,33.8,28.4,81,30.18,10.0,WNW,3.5,-,N/A,,Overcast,300,2013-03-27 06:15:00
2:35 AM,33.8,28.4,81,30.17,10.0,WNW,5.8,-,N/A,,Overcast,300,2013-03-27 06:35:00
2:55 AM,33.8,28.4,81,30.17,10.0,WNW,4.6,-,N/A,,Overcast,300,2013-03-27 06:55:00
3:15 AM,32.0,28.4,87,30.18,10.0,WNW,2.3,-,N/A,,Overcast,290,2013-03-27 07:15:00
3:35 AM,33.8,28.4,81,30.18,10.0,WNW,3.5,-,N/A,,Overcast,300,2013-03-27 07:35:00
3:55 AM,32.0,28.4,87,30.18,10.0,WNW,4.6,-,N/A,,Overcast,290,2013-03-27 07:55:00
4:15 AM,32.0,28.4,87,30.18,10.0,NW,4.6,-,N/A,,Overcast,310,2013-03-27 08:15:00
4:55 AM,32.0,28.4,87,30.17,10.0,NW,3.5,-,N/A,,Overcast,310,2013-03-27 08:55:00
5:15 AM,32.0,28.4,87,30.18,10.0,WNW,3.5,-,N/A,,Mostly Cloudy,290,2013-03-27 09:15:00
5:35 AM,32.0,28.4,87,30.19,10.0,WNW,1.2,-,N/A,,Mostly Cloudy,300,2013-03-27 09:35:00
5:55 AM,32.0,28.4,87,30.19,10.0,WNW,2.3,-,N/A,,Mostly Cloudy,300,2013-03-27 09:55:00
6:15 AM,30.2,28.4,93,30.19,10.0,Calm,Calm,-,N/A,,Scattered Clouds,300,2013-03-27 10:15:00
6:55 AM,30.2,28.4,93,30.20,10.0,WNW,1.2,-,N/A,,Clear,290,2013-03-27 10:55:00
7:15 AM,28.4,28.4,100,30.20,10.0,Calm,Calm,-,N/A,,Clear,270,2013-03-27 11:15:00
7:55 AM,28.4,28.4,100,30.20,10.0,Calm,Calm,-,N/A,,Clear,290,2013-03-27 11:55:00
8:15 AM,30.2,28.4,93,30.20,10.0,Calm,Calm,-,N/A,,Clear,290,2013-03-27 12:15:00
8:35 AM,30.2,30.2,100,30.21,10.0,WNW,1.2,-,N/A,,Clear,290,2013-03-27 12:35:00
8:55 AM,32.0,30.2,93,30.22,10.0,WNW,3.5,-,N/A,,Clear,290,2013-03-27 12:55:00
9:15 AM,33.8,30.2,87,30.22,10.0,West,2.3,-,N/A,,Clear,280,2013-03-27 13:15:00
9:55 AM,35.6,28.4,75,30.23,10.0,WNW,9.2,-,N/A,,Scattered Clouds,300,2013-03-27 13:55:00
10:15 AM,37.4,28.4,70,30.23,10.0,WNW,8.1,-,N/A,,Scattered Clouds,300,2013-03-27 14:15:00
10:56 AM,39.2,26.6,61,30.23,10.0,NW,12.7,19.6,N/A,,Mostly Cloudy,310,2013-03-27 14:56:00
11:15 AM,37.4,24.8,60,30.23,10.0,NNW,10.4,17.3,N/A,,Overcast,330,2013-03-27 15:15:00
11:34 AM,39.2,24.8,56,30.23,10.0,WNW,13.8,18.4,N/A,,Mostly Cloudy,300,2013-03-27 15:34:00
11:55 AM,37.4,23.0,56,30.23,10.0,NNW,12.7,20.7,N/A,,Mostly Cloudy,330,2013-03-27 15:55:00
12:14 PM,39.2,23.0,52,30.23,10.0,NW,11.5,-,N/A,,Overcast,310,2013-03-27 16:14:00
12:35 PM,39.2,23.0,52,30.23,10.0,NNW,10.4,17.3,N/A,,Overcast,340,2013-03-27 16:35:00
12:55 PM,41.0,21.2,45,30.23,10.0,WNW,12.7,20.7,N/A,,Overcast,300,2013-03-27 16:55:00
1:14 PM,42.8,21.2,42,30.23,10.0,NW,11.5,17.3,N/A,,Overcast,320,2013-03-27 17:14:00
1:35 PM,41.0,19.4,42,30.23,10.0,NW,11.5,20.7,N/A,,Mostly Cloudy,320,2013-03-27 17:35:00
1:55 PM,42.8,19.4,39,30.23,10.0,NW,16.1,21.9,N/A,,Mostly Cloudy,320,2013-03-27 17:55:00
2:15 PM,41.0,19.4,42,30.23,10.0,WNW,10.4,25.3,N/A,,Mostly Cloudy,300,2013-03-27 18:15:00
2:35 PM,41.0,19.4,42,30.22,10.0,West,13.8,20.7,N/A,,Mostly Cloudy,280,2013-03-27 18:35:00
2:54 PM,42.8,19.4,39,30.22,10.0,WNW,12.7,20.7,N/A,,Mostly Cloudy,300,2013-03-27 18:54:00
3:15 PM,42.8,19.4,39,30.22,10.0,NW,12.7,24.2,N/A,,Mostly Cloudy,310,2013-03-27 19:15:00
3:35 PM,42.8,19.4,39,30.22,10.0,NW,13.8,23.0,N/A,,Mostly Cloudy,320,2013-03-27 19:35:00
3:54 PM,42.8,19.4,39,30.22,10.0,NW,13.8,23.0,N/A,,Scattered Clouds,310,2013-03-27 19:54:00
4:15 PM,42.8,19.4,39,30.21,10.0,WNW,16.1,20.7,N/A,,Mostly Cloudy,290,2013-03-27 20:15:00
4:35 PM,42.8,19.4,39,30.21,10.0,WNW,18.4,24.2,N/A,,Mostly Cloudy,300,2013-03-27 20:35:00
4:54 PM,42.8,19.4,39,30.21,10.0,WNW,15.0,23.0,N/A,,Scattered Clouds,290,2013-03-27 20:54:00
5:15 PM,42.8,19.4,39,30.21,10.0,NW,16.1,21.9,N/A,,Scattered Clouds,310,2013-03-27 21:15:00
5:35 PM,42.8,19.4,39,30.21,10.0,WNW,16.1,20.7,N/A,,Scattered Clouds,300,2013-03-27 21:35:00
5:54 PM,41.0,19.4,42,30.22,10.0,NW,15.0,23.0,N/A,,Clear,310,2013-03-27 21:54:00
6:15 PM,41.0,19.4,42,30.22,10.0,NW,13.8,21.9,N/A,,Clear,310,2013-03-27 22:15:00
6:34 PM,41.0,19.4,42,30.22,10.0,NW,15.0,20.7,N/A,,Clear,310,2013-03-27 22:34:00
6:55 PM,39.2,19.4,45,30.23,10.0,WNW,13.8,18.4,N/A,,Clear,290,2013-03-27 22:55:00
7:15 PM,39.2,17.6,42,30.23,10.0,NNW,12.7,18.4,N/A,,Clear,330,2013-03-27 23:15:00
7:34 PM,37.4,17.6,45,30.23,10.0,NW,9.2,-,N/A,,Clear,320,2013-03-27 23:34:00
7:55 PM,37.4,17.6,45,30.24,10.0,NW,9.2,16.1,N/A,,Clear,310,2013-03-27 23:55:00
8:14 PM,35.6,17.6,48,30.24,10.0,NW,5.8,-,N/A,,Clear,310,2013-03-28 00:14:00
8:35 PM,35.6,17.6,48,30.24,10.0,NW,5.8,-,N/A,,Clear,310,2013-03-28 00:35:00
8:54 PM,33.8,17.6,52,30.25,10.0,NW,4.6,-,N/A,,Clear,310,2013-03-28 00:54:00
9:15 PM,33.8,17.6,52,30.25,10.0,NW,6.9,-,N/A,,Clear,310,2013-03-28 01:15:00
9:35 PM,33.8,19.4,56,30.26,10.0,Calm,Calm,-,N/A,,Clear,0,2013-03-28 01:35:00
9:55 PM,33.8,19.4,56,30.26,10.0,Calm,Calm,-,N/A,,Clear,0,2013-03-28 01:55:00
10:15 PM,32.0,19.4,60,30.26,10.0,Calm,Calm,-,N/A,,Clear,0,2013-03-28 02:15:00
10:35 PM,32.0,19.4,60,30.26,10.0,Calm,Calm,-,N/A,,Clear,0,2013-03-28 02:35:00
10:54 PM,32.0,19.4,60,30.26,10.0,Calm,Calm,-,N/A,,Clear,0,2013-03-28 02:54:00
11:15 PM,30.2,19.4,64,30.26,10.0,Calm,Calm,-,N/A,,Clear,0,2013-03-28 03:15:00
11:35 PM,30.2,19.4,64,30.26,10.0,West,4.6,-,N/A,,Clear,280,2013-03-28 03:35:00
11:54 PM,30.2,19.4,64,30.26,10.0,West,4.6,-,N/A,,Clear,270,2013-03-28 03:54:00